HA9HP Weather Reports


Display with metric or nautical units.
time (UTC)temp
F
wind
direction
speed
MPH
gust
MPH
rain 1hr
in
rain 24hr
in
rain mn
in
humidity
%
barometer
mb
20260506061512 59 229 4.0 9.0 0.00 0.00 0.00 70 1011.8
20260506044519 56 244 1.0 6.0 0.00 0.00 0.00 72 1011.0
20260506043015 54 160 2.0 5.0 0.00 0.00 0.00 75 1010.8
20260506041515 52 178 1.0 5.0 0.00 0.00 0.00 76 1010.7
20260506040014 52 167 1.0 3.0 0.00 0.00 0.00 76 1010.3
20260506034520 52 151 1.0 3.0 0.00 0.00 0.00 75 1010.2
20260506033015 52 177 2.0 5.0 0.00 0.00 0.00 75 1010.2
20260506031518 52 182 0.0 2.0 0.00 0.00 0.00 75 1010.3
20260506030018 53 182 0.0 3.0 0.00 0.00 0.00 74 1010.3
20260506024516 53 150 1.0 4.0 0.00 0.00 0.00 73 1010.3
20260506023029 53 176 1.0 2.0 0.00 0.00 0.00 73 1010.4
20260506021532 53 221 0.0 2.0 0.00 0.00 0.00 74 1010.3
20260506020025 53 194 0.0 2.0 0.00 0.00 0.00 73 1010.4
20260506014520 54 192 0.0 1.0 0.00 0.00 0.00 72 1010.5
20260506013027 54 184 0.0 2.0 0.00 0.00 0.00 71 1010.6
20260506011519 54 181 0.0 2.0 0.00 0.00 0.00 70 1010.7
20260506010020 54 193 0.0 2.0 0.00 0.00 0.00 70 1010.6
20260506004525 54 238 0.0 2.0 0.00 0.00 0.00 71 1010.6
20260506003021 52 191 0.0 3.0 0.00 0.00 0.00 75 1010.6
20260506001520 50 143 0.0 2.0 0.00 0.00 0.00 75 1010.4
20260506000023 51 144 0.0 2.0 0.00 0.00 0.00 73 1010.4
20260505234524 53 144 0.0 2.0 0.00 0.00 0.00 70 1010.3
20260505233022 54 163 0.0 2.0 0.00 0.00 0.00 66 1010.2
20260505231535 55 200 0.0 2.0 0.00 0.00 0.00 65 1010.3
20260505230027 58 200 0.0 2.0 0.00 0.00 0.00 61 1010.3
20260505224524 58 254 0.0 4.0 0.00 0.00 0.00 60 1010.4
20260505223024 57 252 1.0 4.0 0.00 0.00 0.00 62 1010.5
20260505221527 52 230 1.0 3.0 0.00 0.00 0.00 70 1010.4
20260505220024 51 234 0.0 2.0 0.00 0.00 0.00 75 1010.4
20260505214527 51 234 0.0 2.0 0.00 0.00 0.00 74 1010.4
20260505213016 52 234 0.0 2.0 0.00 0.00 0.00 74 1010.4
20260505211516 52 234 0.0 2.0 0.00 0.00 0.00 74 1010.2
20260505210020 53 234 0.0 2.0 0.00 0.00 0.00 73 1010.2
20260505204527 53 234 0.0 2.0 0.00 0.00 0.00 72 1010.2
20260505203012 54 234 0.0 2.0 0.00 0.00 0.00 71 1010.2
20260505201528 54 234 0.0 2.0 0.00 0.00 0.00 69 1010.1
20260505200017 55 234 0.0 2.0 0.00 0.00 0.00 67 1010.0
20260505194526 56 233 0.0 2.0 0.00 0.00 0.00 65 1009.9
20260505193031 57 213 0.0 2.0 0.00 0.00 0.00 62 1009.9
20260505191514 58 213 0.0 2.0 0.00 0.00 0.00 59 1009.9
20260505190018 60 213 0.0 0.0 0.00 0.00 0.00 55 1009.9
20260505184525 62 213 0.0 0.0 0.00 0.00 0.00 51 1009.9
20260505183028 66 213 0.0 2.0 0.00 0.00 0.00 45 1009.9
20260505181510 69 213 0.0 2.0 0.00 0.00 0.00 40 1009.8
20260505180020 72 199 0.0 3.0 0.00 0.00 0.00 36 1009.8
20260505174528 74 192 1.0 7.0 0.00 0.00 0.00 32 1009.8
20260505173024 76 168 0.0 3.0 0.00 0.00 0.00 30 1009.5
20260505171525 78 150 0.0 3.0 0.00 0.00 0.00 28 1009.3
20260505170019 79 153 1.0 3.0 0.00 0.00 0.00 26 1009.4
20260505164522 80 134 1.0 4.0 0.00 0.00 0.00 25 1009.4
20260505163029 80 186 2.0 7.0 0.00 0.00 0.00 25 1009.6
20260505161526 81 166 3.0 8.0 0.00 0.00 0.00 24 1009.7
20260505153018 78 150 2.0 8.0 0.00 0.00 0.00 25 1010.1
20260505151526 79 119 3.0 7.0 0.00 0.00 0.00 24 1010.2
20260505124526 81 177 4.0 14.0 0.00 0.00 0.00 1011.6
20260505123015 81 141 4.0 10.0 0.00 0.00 0.00 1011.9
20260505121520 81 184 3.0 11.0 0.00 0.00 0.00 1012.2
20260505120026 81 154 3.0 9.0 0.00 0.00 0.00 23 1012.3
20260505114527 81 175 5.0 9.0 0.00 0.00 0.00 1012.5
20260505113017 80 134 4.0 12.0 0.00 0.00 0.00 24 1012.6
20260505111520 80 287 5.0 11.0 0.00 0.00 0.00 24 1012.8
20260505101519 78 178 4.0 11.0 0.00 0.00 0.00 27 1013.5
20260505100022 78 272 2.0 8.0 0.00 0.00 0.00 28 1013.8
20260505094527 77 188 4.0 10.0 0.00 0.00 0.00 28 1014.0
20260505093031 77 172 4.0 10.0 0.00 0.00 0.00 29 1014.2
20260505091516 76 189 5.0 13.0 0.00 0.00 0.00 28 1014.2
20260505090021 76 194 3.0 15.0 0.00 0.00 0.00 33 1014.4
20260505084522 75 239 4.0 11.0 0.00 0.00 0.00 32 1014.5
20260505083028 74 142 3.0 9.0 0.00 0.00 0.00 35 1014.5
20260505081532 72 146 3.0 7.0 0.00 0.00 0.00 36 1014.7
20260505080020 71 221 2.0 8.0 0.00 0.00 0.00 39 1014.9
20260505074522 71 261 4.0 7.0 0.00 0.00 0.00 37 1014.9
20260505073035 70 169 1.0 6.0 0.00 0.00 0.00 40 1015.0
20260505071525 69 188 3.0 7.0 0.00 0.00 0.00 40 1015.0
20260505070028 67 186 2.0 5.0 0.00 0.00 0.00 45 1015.1
20260505064525 65 104 3.0 6.0 0.00 0.00 0.00 47 1015.2